{"data":{"norad_id":67268,"intl_designator":"2025-313W","name":"ZORKY-2M 7","alt_names":[],"object_type":"PAYLOAD","status":"ACTIVE","operator":null,"country":"CIS","launch_date":"2025-12-28","launch_site_code":"VOSTO","launch_vehicle":null,"mission":null,"orbit_class":"UNKNOWN","rcs_meters":null,"size_class":null,"mass_kg":null,"dimensions":null,"purposes":[],"wikipedia_slug":null,"has_3d_model":false,"image_url":null,"decayed_at":null,"tle_current":{"epoch":"2026-09-20T22:36:56.389248Z","epoch_age_seconds":64904,"freshness":"FRESH","line1":"1 67268U 25313W   26263.94231932  .00004043  00000+0  17103-3 0  9990","line2":"2 67268  97.3869 337.0684 0015105  33.6942 326.5253 15.23670914 40528","mean_motion":15.23670914,"eccentricity":0.0015105,"inclination_deg":97.3869,"raan_deg":337.0684,"arg_perigee_deg":33.6942,"mean_anomaly_deg":326.5253,"bstar":0.00017103,"rev_number":4052,"period_min":94.508596755953,"perigee_km":484.3977840308,"apogee_km":505.16086424602,"semimajor_km":6872.9163241384,"source":"CELESTRAK","updated_at":"2026-09-21T09:00:16.540131Z"}}}